This is the latest recevied weather packets stored in our database for station/object KC5DP. If no packets are shown the sender has not sent any weather packets the latest 10 day(s).
| Time | Temp. | Humidity | Pressure | Rain* | Wind** | Luminosity | Snow |
|---|---|---|---|---|---|---|---|
| 1778030799 | 23.89° C | 83% | 1010.3 hPa | 0 mm | - | 0 W/m² | - |
| 1778030496 | 23.89° C | 83% | 1010.3 hPa | 0 mm | - | 0 W/m² | - |
| 1778030194 | 23.89° C | 83% | 1010.1 hPa | 0 mm | - | 0 W/m² | - |
| 1778029889 | 24.44° C | 82% | 1010.2 hPa | 0 mm | - | 0 W/m² | - |
| 1778029589 | 24.44° C | 82% | 1010.1 hPa | 0 mm | - | 0 W/m² | - |
| 1778029286 | 24.44° C | 82% | 1009.9 hPa | 0 mm | - | 0 W/m² | - |
| 1778028982 | 24.44° C | 81% | 1009.9 hPa | 0 mm | - | 0 W/m² | - |
| 1778028678 | 24.44° C | 82% | 1009.9 hPa | 0 mm | - | 1 W/m² | - |
| 1778028375 | 25° C | 81% | 1009.8 hPa | 0 mm | - | 1 W/m² | - |
| 1778028073 | 25° C | 81% | 1009.9 hPa | 0 mm | - | 2 W/m² | - |
| 1778027769 | 25° C | 80% | 1009.8 hPa | 0 mm | - | 4 W/m² | - |
| 1778027465 | 25° C | 80% | 1009.8 hPa | 0 mm | - | 6 W/m² | - |
| 1778027160 | 25° C | 80% | 1009.9 hPa | 0 mm | - | 8 W/m² | - |
| 1778026857 | 25° C | 79% | 1009.9 hPa | 0 mm | - | 10 W/m² | - |
| 1778026553 | 25.56° C | 80% | 1009.9 hPa | 0 mm | - | 13 W/m² | - |
| 1778026250 | 25.56° C | 80% | 1009.9 hPa | 0 mm | - | 20 W/m² | - |
| 1778025296 | 25.56° C | 79% | 1009.8 hPa | 0 mm | - | 31 W/m² | - |
| 1778024993 | 25.56° C | 79% | 1009.8 hPa | 0 mm | - | 31 W/m² | - |
| 1778024690 | 25.56° C | 79% | 1009.8 hPa | 0 mm | - | 44 W/m² | - |
| 1778024386 | 25.56° C | 78% | 1009.8 hPa | 0 mm | - | 37 W/m² | - |
| 1778024084 | 26.11° C | 78% | 1009.8 hPa | 0 mm | - | 13 W/m² | - |
| 1778023782 | 26.11° C | 78% | 1009.9 hPa | 0 mm | - | 34 W/m² | - |
| 1778023480 | 26.11° C | 77% | 1009.9 hPa | 0 mm | - | 67 W/m² | - |
| 1778023176 | 26.11° C | 77% | 1009.8 hPa | 0 mm | - | 81 W/m² | - |
| 1778022873 | 26.11° C | 78% | 1009.7 hPa | 0 mm | - | 53 W/m² | - |
* Rain latest hour (hover to see other rain measurements)
** Current wind speed in m/s (hover to see current wind gust speed)